Flag for Ireland Weather past 2 weeks in Waterford, Ireland

Now
45 °F

Partly sunny.


Feels Like: 39 °F
Forecast: N/A
Wind: 12 mph from Northwest

Location: Cork Airport

Current Time: Jan 26, 2015 at 3:22:37 PM

Latest Report: Jan 26, 2015 at 3:00 PM


Visibility: N/A

Pressure: 30.42 "Hg

Humidity: 76%

Dew point: 37 °F

Location of WaterfordLocation

Historic Weather in Waterford — Graph

°F

Waterford temperature yesterday

Maximum temperature yesterday: 50 °F (at 10:00 AM)
Minimum temperature yesterday: 43 °F (at 12:00 AM)
Average temperature yesterday: 48 °F

Past Weeks' High & Low Weather Summary

 TemperatureHumidityPressure
High52 °F (Jan 23, 1:00 PM)100% (Jan 12, 4:30 AM)30.48 "Hg (Jan 12, 4:30 AM)
Low28 °F (Jan 13, 11:00 PM)61% (Jan 24, 1:00 PM)28.77 "Hg (Jan 14, 7:30 PM)
Average39 °F91%29.84 "Hg
* Reported Jan 11 2:00 PM — Jan 26 2:00 PM, Waterford, Weather by CustomWeather, © 2014

Note: Actual official high and low records may vary slightly from our data, if they occured in-between our weather recording intervals... More about our weather records

Advertising

Waterford weather history for previous 24 hours

 ConditionsComfort  
Time TempWeatherWind HumidityBarometerVisibility
2:00 PM
Jan 26
45 °FBroken clouds.17 mph76%30.42 "HgN/A
1:30 PM46 °FPartly sunny.16 mph71%30.42 "HgN/A
1:00 PM45 °FPartly sunny.18 mph76%30.42 "HgN/A
12:30 PM46 °FPartly sunny.17 mph71%30.39 "HgN/A
12:00 PM45 °FPartly sunny.12 mph76%30.39 "HgN/A
11:30 AM45 °FPartly sunny.14 mph76%30.39 "HgN/A
11:00 AM43 °FPartly sunny.16 mph87%30.39 "HgN/A
10:30 AM43 °FBroken clouds.15 mph87%30.39 "HgN/A
10:00 AM43 °FPartly sunny.13 mph81%30.39 "HgN/A
9:30 AM41 °FBroken clouds.10 mph87%30.36 "HgN/A
9:00 AM41 °FBroken clouds.10 mph81%30.36 "HgN/A
8:30 AM43 °FScattered clouds.12 mph76%30.36 "HgN/A
8:00 AM43 °FPassing clouds.12 mph76%30.36 "HgN/A
7:30 AM43 °FPassing clouds.13 mph81%30.33 "HgN/A
7:00 AM43 °FPassing clouds.13 mph81%30.33 "HgN/A
6:30 AM43 °FPassing clouds.10 mph87%30.30 "HgN/A
6:00 AM43 °FPassing clouds.15 mph87%30.30 "HgN/A
5:30 AM43 °FPassing clouds.13 mph87%30.27 "HgN/A
5:00 AM43 °FPassing clouds.8 mph87%30.27 "HgN/A
4:30 AM43 °FPassing clouds.15 mph87%30.27 "HgN/A
4:00 AM43 °FPassing clouds.7 mph93%30.27 "HgN/A
3:30 AM45 °FPassing clouds.12 mph87%30.24 "HgN/A
3:00 AM45 °FPassing clouds.14 mph93%30.24 "HgN/A
2:30 AM45 °FPassing clouds.12 mph93%30.24 "HgN/A
2:00 AM45 °FPassing clouds.10 mph93%30.24 "HgN/A
1:30 AM46 °FPassing clouds.12 mph87%30.24 "HgN/A
1:00 AM46 °FPartly cloudy.8 mph93%30.24 "HgN/A
12:30 AM46 °FPartly cloudy.9 mph100%30.21 "HgN/A
12:00 AM48 °FPartly cloudy.14 mph100%30.21 "HgN/A
11:30 PM
Jan 25
50 °FPartly cloudy.13 mph100%30.21 "Hg4 mi
11:00 PM50 °FPartly cloudy.13 mph100%30.21 "HgN/A
10:30 PM50 °FPartly cloudy.14 mph100%30.21 "Hg5 mi
10:00 PM48 °FPartly cloudy.15 mph100%30.21 "Hg5 mi
9:30 PM48 °FPartly cloudy.16 mph100%30.21 "Hg5 mi
9:00 PM48 °FPartly cloudy.15 mph100%30.21 "HgN/A
8:30 PM48 °FPartly cloudy.16 mph100%30.21 "HgN/A
8:00 PM48 °FPartly cloudy.12 mph100%30.24 "Hg5 mi
7:30 PM48 °FPartly cloudy.10 mph100%30.24 "Hg4 mi
7:00 PM48 °FPassing clouds.10 mph100%30.24 "Hg5 mi
6:30 PM48 °FPassing clouds.10 mph100%30.24 "Hg5 mi
6:00 PM48 °FPassing clouds.13 mph100%30.27 "HgN/A
5:30 PM50 °FPassing clouds.14 mph94%30.27 "Hg3 mi
5:00 PM50 °FPartly sunny.15 mph94%30.27 "HgN/A
4:30 PM50 °FPartly sunny.14 mph94%30.27 "HgN/A
4:00 PM50 °FPartly sunny.16 mph94%30.27 "HgN/A
3:30 PM50 °FPartly sunny.17 mph94%30.27 "HgN/A
3:00 PM50 °FDrizzle. Low clouds.17 mph94%30.27 "HgN/A
Weather by CustomWeather, © 2014

See weather overviewHow to use our weather pages